Joliet, IL

2:25 AM CST on November 24, 2017 (GMT -0600)
Joliet Regional

Weather History for KJOT - April, 2013

Change the Weather History Date:

Tuesday, April 2, 2013

  Actual Average (KARR) Record (KARR)
Temperature  
Mean Temperature 32 °F -  
Max Temperature 43 °F 53 °F 79 °F (2003)
Min Temperature 22 °F 32 °F 21 °F (2013)
Degree Days  
Heating Degree Days 32    
Moisture  
Dew Point 15 °F    
Average Humidity 50    
Maximum Humidity 80    
Minimum Humidity 24    
Precipitation  
Precipitation 0.00 in - - ()
Sea Level Pressure  
Sea Level Pressure 30.25 in    
Wind  
Wind Speed 4 mph (NW)    
Max Wind Speed 12 mph    
Max Gust Speed 20 mph    
Visibility 10 miles    
Events      
Averages and records for this station are not official NWS values.
T = Trace of Precipitation, MM = Missing Value Source: NWS Daily Summary

Daily Weather History Graph

Daily Weather History Graph

Search for Another Location

Airport or City:

Trip Planner

Search our weather history database for the weather conditions in past years. The results will help you decide how hot, cold, wet, or windy it might be!

Date:

Astronomy

Apr. 02, 2013 Rise Set
Actual Time 6:33 AM CDT 7:19 PM CDT
Civil Twilight 6:05 AM CDT 7:47 PM CDT
Nautical Twilight 5:32 AM CDT 8:20 PM CDT
Astronomical Twilight 4:58 AM CDT 8:55 PM CDT
Moon 1:26 AM CDT (4/2) 11:21 AM CDT (4/2)
Length of Visible Light 13h 41m
Length of Day
12h 45m
Waning Gibbous, 55% of the Moon is Illuminated
Apr 2
Waning Gibbous
Apr 2
Last Quarter
Apr 10
New
Apr 18
First Quarter
Apr 25
Full

Hourly Weather History & Observations

Time (CDT) Temp. Windchill Dew Point Humidity Pressure Visibility Wind Dir Wind Speed Gust Speed Precip Events Conditions
12:15 AM 30.0 °F 25.2 °F 17.6 °F 60% 30.19 in 10.0 mi NW 4.6 mph - N/A   Clear
12:35 AM 29.7 °F 24.7 °F 17.6 °F 61% 30.19 in 10.0 mi NW 4.6 mph - N/A   Clear
12:55 AM 28.9 °F 22.8 °F 17.8 °F 63% 30.20 in 10.0 mi NW 5.8 mph - N/A   Clear
1:15 AM 28.4 °F 23.3 °F 18.0 °F 65% 30.20 in 10.0 mi NW 4.6 mph - N/A   Clear
1:35 AM 28.2 °F 24.4 °F 18.0 °F 65% 30.21 in 10.0 mi WNW 3.5 mph - N/A   Clear
1:55 AM 27.5 °F - 18.0 °F 67% 30.21 in 10.0 mi Calm Calm - N/A   Clear
2:15 AM 27.3 °F 23.4 °F 18.1 °F 68% 30.21 in 10.0 mi NW 3.5 mph - N/A   Clear
2:35 AM 26.4 °F - 18.1 °F 71% 30.21 in 10.0 mi Calm Calm - N/A   Clear
2:55 AM 26.2 °F - 18.1 °F 71% 30.21 in 10.0 mi Calm Calm - N/A   Clear
3:15 AM 26.2 °F 22.1 °F 18.0 °F 71% 30.21 in 10.0 mi NW 3.5 mph - N/A   Clear
3:35 AM 25.7 °F - 18.0 °F 73% 30.21 in 10.0 mi Calm Calm - N/A   Clear
3:55 AM 25.7 °F - 17.6 °F 71% 30.21 in 10.0 mi Calm Calm - N/A   Clear
4:15 AM 25.3 °F - 17.6 °F 72% 30.21 in 10.0 mi Calm Calm - N/A   Clear
4:35 AM 24.8 °F - 17.6 °F 74% 30.22 in 10.0 mi Calm Calm - N/A   Clear
4:55 AM 24.6 °F 20.3 °F 16.9 °F 72% 30.22 in 10.0 mi WNW 3.5 mph - N/A   Clear
5:15 AM 24.8 °F - 17.2 °F 73% 30.23 in 10.0 mi Calm Calm - N/A   Clear
5:35 AM 24.4 °F - 17.4 °F 75% 30.23 in 10.0 mi Calm Calm - N/A   Clear
5:55 AM 23.9 °F - 17.4 °F 76% 30.24 in 10.0 mi Calm Calm - N/A   Clear
6:15 AM 23.0 °F - 17.4 °F 79% 30.24 in 10.0 mi Calm Calm - N/A   Clear
6:35 AM 23.0 °F - 17.6 °F 80% 30.24 in 10.0 mi Calm Calm - N/A   Clear
6:55 AM 22.1 °F - 16.7 °F 80% 30.25 in 10.0 mi Calm Calm - N/A   Clear
7:15 AM 23.9 °F - 18.5 °F 80% 30.26 in 10.0 mi Calm Calm - N/A   Clear
7:35 AM 25.9 °F - 19.4 °F 76% 30.27 in 10.0 mi Calm Calm - N/A   Clear
7:55 AM 27.3 °F 22.0 °F 19.9 °F 74% 30.27 in 10.0 mi WNW 4.6 mph - N/A   Clear
8:15 AM 28.6 °F 23.5 °F 20.3 °F 71% 30.28 in 10.0 mi WNW 4.6 mph - N/A   Clear
8:35 AM 30.7 °F 26.0 °F 20.1 °F 65% 30.29 in 10.0 mi NNW 4.6 mph - N/A   Clear
8:55 AM 32.0 °F 27.5 °F 18.9 °F 58% 30.29 in 10.0 mi NW 4.6 mph - N/A   Clear
9:15 AM 32.5 °F 28.1 °F 18.7 °F 57% 30.29 in 10.0 mi NNW 4.6 mph - N/A   Clear
9:35 AM 33.6 °F 28.4 °F 18.0 °F 53% 30.29 in 10.0 mi NW 5.8 mph - N/A   Clear
9:55 AM 34.7 °F 28.8 °F 16.9 °F 48% 30.28 in 10.0 mi West 6.9 mph - N/A   Clear
10:15 AM 36.1 °F 30.6 °F 15.1 °F 42% 30.28 in 10.0 mi NW 6.9 mph - N/A   Clear
10:35 AM 37.0 °F 31.0 °F 12.9 °F 37% 30.29 in 10.0 mi NW 8.1 mph - N/A   Clear
10:55 AM 37.6 °F 31.0 °F 12.4 °F 36% 30.29 in 10.0 mi West 9.2 mph - N/A   Clear
11:15 AM 38.3 °F 32.5 °F 11.8 °F 34% 30.29 in 10.0 mi WNW 8.1 mph 17.3 mph N/A   Clear
11:35 AM 39.0 °F 32.3 °F 11.3 °F 32% 30.28 in 10.0 mi WNW 10.4 mph - N/A   Clear
11:55 AM 39.6 °F 33.5 °F 10.9 °F 31% 30.27 in 10.0 mi NW 9.2 mph 16.1 mph N/A   Clear
12:15 PM 39.7 °F 32.7 °F 9.3 °F 29% 30.27 in 10.0 mi NW 11.5 mph - N/A   Clear
12:35 PM 41.4 °F 35.2 °F 8.4 °F 26% 30.27 in 10.0 mi WNW 10.4 mph 17.3 mph N/A   Clear
12:55 PM 40.3 °F 33.9 °F 8.8 °F 27% 30.26 in 10.0 mi NW 10.4 mph 17.3 mph N/A   Clear
1:15 PM 41.9 °F 35.9 °F 10.2 °F 27% 30.25 in 10.0 mi NW 10.4 mph 16.1 mph N/A   Clear
1:35 PM 41.7 °F 36.7 °F 8.4 °F 25% 30.25 in 10.0 mi NW 8.1 mph 19.6 mph N/A   Clear
1:55 PM 42.3 °F 36.8 °F 8.6 °F 25% 30.24 in 10.0 mi WNW 9.2 mph 16.1 mph N/A   Clear
2:15 PM 42.1 °F 37.1 °F 9.9 °F 27% 30.24 in 10.0 mi NW 8.1 mph 18.4 mph N/A   Clear
2:35 PM 42.8 °F 37.5 °F 9.5 °F 26% 30.23 in 10.0 mi NW 9.2 mph 17.3 mph N/A   Clear
2:55 PM 43.3 °F 37.7 °F 8.6 °F 24% 30.23 in 10.0 mi WNW 10.4 mph - N/A   Clear
3:15 PM 43.0 °F 38.2 °F 9.9 °F 26% 30.22 in 10.0 mi North 8.1 mph - N/A   Clear
3:35 PM 42.8 °F 36.6 °F 9.1 °F 25% 30.23 in 10.0 mi WNW 11.5 mph 18.4 mph N/A   Clear
3:55 PM 43.3 °F 38.6 °F 9.7 °F 25% 30.23 in 10.0 mi NW 8.1 mph 19.6 mph N/A   Clear
4:15 PM 43.0 °F 37.7 °F 10.2 °F 26% 30.23 in 10.0 mi WNW 9.2 mph - N/A   Clear
4:35 PM 42.8 °F 38.0 °F 10.6 °F 27% 30.23 in 10.0 mi WNW 8.1 mph 17.3 mph N/A   Scattered Clouds
4:55 PM 41.2 °F 36.6 °F 11.1 °F 29% 30.24 in 10.0 mi NW 6.9 mph - N/A   Scattered Clouds
5:15 PM 42.3 °F 36.8 °F 11.3 °F 28% 30.23 in 10.0 mi NW 9.2 mph 16.1 mph N/A   Scattered Clouds
5:35 PM 42.8 °F 37.0 °F 12.6 °F 29% 30.24 in 10.0 mi NW 10.4 mph 17.3 mph N/A   Mostly Cloudy
5:55 PM 41.9 °F 35.9 °F 12.7 °F 31% 30.24 in 10.0 mi NNW 10.4 mph - N/A   Overcast
6:15 PM 40.3 °F 35.5 °F 12.2 °F 32% 30.24 in 10.0 mi NW 6.9 mph - N/A   Scattered Clouds
6:35 PM 40.3 °F 36.3 °F 12.0 °F 32% 30.24 in 10.0 mi NW 5.8 mph - N/A   Clear
6:55 PM 39.2 °F 35.0 °F 12.2 °F 33% 30.24 in 10.0 mi NNW 5.8 mph - N/A   Clear
7:15 PM 39.2 °F 35.9 °F 12.4 °F 33% 30.24 in 10.0 mi NW 4.6 mph - N/A   Clear
7:35 PM 37.4 °F 33.8 °F 14.0 °F 38% 30.24 in 10.0 mi NNW 4.6 mph - N/A   Clear
7:55 PM 37.4 °F - 13.6 °F 38% 30.25 in 10.0 mi Calm Calm - N/A   Clear
8:15 PM 36.9 °F 34.3 °F 14.2 °F 40% 30.26 in 10.0 mi NNW 3.5 mph - N/A   Clear
8:35 PM 35.8 °F - 14.7 °F 42% 30.27 in 10.0 mi Calm Calm - N/A   Clear
8:55 PM 34.9 °F 32.0 °F 14.7 °F 44% 30.27 in 10.0 mi NNW 3.5 mph - N/A   Clear
9:15 PM 34.9 °F - 14.9 °F 44% 30.28 in 10.0 mi Calm Calm - N/A   Clear
9:35 PM 34.7 °F - 14.9 °F 44% 30.29 in 10.0 mi Calm Calm - N/A   Clear
9:55 PM 34.0 °F - 14.9 °F 46% 30.29 in 10.0 mi Calm Calm - N/A   Clear
10:15 PM 33.4 °F - 15.3 °F 47% 30.30 in 10.0 mi Calm Calm - N/A   Clear
10:35 PM 30.0 °F - 15.4 °F 55% 30.30 in 10.0 mi Calm Calm - N/A   Clear
10:55 PM 28.9 °F - 15.6 °F 58% 30.30 in 10.0 mi Calm Calm - N/A   Clear
11:15 PM 29.3 °F - 16.5 °F 59% 30.30 in 10.0 mi Calm Calm - N/A   Clear
11:35 PM 29.5 °F 25.9 °F 16.5 °F 59% 30.30 in 10.0 mi North 3.5 mph - N/A   Clear
11:55 PM 29.8 °F 24.9 °F 16.9 °F 59% 30.30 in 10.0 mi North 4.6 mph - N/A   Clear